Weather History for MCMWTC BRIDGEPORT, CA, CA

Change the Weather History Date:

Thursday, April 17, 2014

  Actual Average (KTVL) Record (KTVL)
Temperature  
Mean Temperature 47 °F 40 °F  
Max Temperature 66 °F 54 °F 71 °F (1994)
Min Temperature 28 °F 27 °F 4 °F (1975)
Degree Days  
Heating Degree Days 18 24  
Month to date heating degree days 442  
Since 1 July heating degree days 6594  
Cooling Degree Days 0 0  
Month to date cooling degree days 0  
Year to date cooling degree days 0  
Moisture  
Dew Point 26 °F    
Average Humidity 46    
Maximum Humidity 81    
Minimum Humidity 21    
Precipitation  
Precipitation 0.00 in - 0.29 in (1953)
Month to date precipitation  
Year to date precipitation  
Sea Level Pressure  
Sea Level Pressure 29.82 in    
Wind  
Wind Speed 5 mph (SW)    
Max Wind Speed 21 mph    
Max Gust Speed 34 mph    
Visibility 10 miles    
Events      
T = Trace of Precipitation, MM = Missing Value Source: NWS Daily Summary

Daily Weather History Graph

Daily Weather History Graph

Search for Another Location

Airport:

Trip Planner

Search our weather history database for the weather conditions in past years. The results will help you decide how hot, cold, wet, or windy it might be!

Date:

Astronomy

Apr. 17, 2014 Rise Set
Actual Time 6:19 AM PDT 7:36 PM PDT
Civil Twilight 5:51 AM PDT 8:04 PM PDT
Nautical Twilight 5:19 AM PDT 8:36 PM PDT
Astronomical Twilight 4:44 AM PDT 9:11 PM PDT
Moon 10:25 PM PDT (4/17) 7:56 AM PDT (4/17)
Length of Visible Light 14h 12m
Length of Day
13h 17m
Waning Gibbous, 93% of the Moon is Illuminated
Apr 17
Waning Gibbous
Apr 22
Last Quarter
Apr 28
New
May 6
First Quarter
May 14
Full

Hourly Weather History & Observations

Time (PDT) Temp. Dew Point Humidity Pressure Visibility Wind Dir Wind Speed Gust Speed Precip Events Conditions
12:52 AM 35.1 °F 24.1 °F 64% 29.88 in 10.0 mi Calm Calm - N/A   Clear
1:52 AM 35.1 °F 23.0 °F 61% 29.86 in 10.0 mi Calm Calm - N/A   Clear
2:52 AM 32.0 °F 23.0 °F 69% 29.86 in 10.0 mi Calm Calm - N/A   Clear
3:52 AM 32.0 °F 23.0 °F 69% 29.85 in 10.0 mi Calm Calm - N/A   Clear
4:52 AM 30.9 °F 23.0 °F 72% 29.90 in 10.0 mi Calm Calm - N/A   Clear
5:52 AM 28.9 °F 21.9 °F 75% 29.91 in 10.0 mi Calm Calm - N/A   Clear
6:52 AM 28.0 °F 23.0 °F 81% 29.93 in 10.0 mi Calm Calm - N/A   Clear
7:52 AM 37.0 °F 27.0 °F 67% 29.91 in 10.0 mi Calm Calm - N/A   Clear
8:52 AM 46.9 °F 28.9 °F 50% 29.86 in 10.0 mi Calm Calm - N/A   Clear
10:52 AM 64.9 °F 28.9 °F 26% 29.75 in 10.0 mi SSW 13.8 mph 23.0 mph N/A   Clear
11:52 AM 66.0 °F 28.9 °F 25% 29.76 in 10.0 mi WSW 17.3 mph 28.8 mph N/A   Clear
12:52 PM 66.0 °F 30.0 °F 26% 29.77 in 10.0 mi WSW 20.7 mph 32.2 mph N/A   Clear
1:52 PM 64.9 °F 28.0 °F 25% 29.78 in 10.0 mi WSW 17.3 mph 33.4 mph N/A   Clear
2:52 PM 64.9 °F 26.1 °F 23% 29.83 in 10.0 mi WSW 18.4 mph 33.4 mph N/A   Clear
3:52 PM 64.0 °F 23.0 °F 21% 29.82 in 10.0 mi West 15.0 mph 34.5 mph N/A   Clear
4:52 PM 62.1 °F 25.0 °F 24% 29.82 in 10.0 mi SW 11.5 mph 26.5 mph N/A   Clear
5:52 PM 62.1 °F 26.1 °F 25% 29.83 in 10.0 mi SSW 18.4 mph 25.3 mph N/A   Clear
6:52 PM 57.0 °F 30.0 °F 36% 29.85 in 10.0 mi SSW 11.5 mph 20.7 mph N/A   Clear
8:52 PM 51.1 °F 30.9 °F 46% 29.82 in 10.0 mi Calm Calm - N/A   Clear
9:52 PM 50.0 °F 28.9 °F 44% 29.74 in 10.0 mi Calm Calm - N/A   Clear
10:52 PM 51.1 °F 26.1 °F 38% 29.70 in 10.0 mi WSW 6.9 mph - N/A   Clear
11:52 PM 51.1 °F 27.0 °F 39% 29.69 in 10.0 mi WSW 10.4 mph - N/A   Clear